Find Kosmos-1853

NORAD ID: 18114 Int'l Des: 1987-051 Owner: UNKS Country: SU operational
LEOCIRCULAR

リアルタイム位置

3D地球を読み込み中...

Kosmos-1853について

説明を読み込み中...

次回通過

Passes for default location (London). Set your location on the main map for personalized predictions.

高度履歴

Loading altitude history...

軌道要素

1 18114U 87051B 26105.40141046 .00000015 00000-0 21147-3 0 9994
2 18114 74.0007 131.7938 0007109 276.9302 192.1742 12.47018638767683
Epoch: Apr 15, 2026 • Age: 20 hours

現在のステータス

高度 1492.6 km
速度 7.12 km/s
衛星直下点 -52.05°S, 44.38°E
打ち上げ日 Jun 16, 1987
運用期間 38.8 years
タイプ other

技術仕様

分類 Payload
質量 60.00 kg
乾燥質量 60.00 kg
総質量 60.00 kg
長さ 0.80 m
直径 0.80 m
スパン 0.80 m
形状 Poly
製造者 NPOPM
バスタイプ Strela-1 11F625
フェーズステータス In Orbit
所有者/国 UNKS/SU

Most Searched